Weather History for Madison, SD

Change the Weather History Date:

Tuesday, April 1, 2014

  Actual Average Record
Temperature  
Mean Temperature 19 °F -  
Max Temperature 28 °F 49 °F 89 °F (2012)
Min Temperature 10 °F 27 °F 10 °F (2014)
Degree Days  
Heating Degree Days 46    
Moisture  
Dew Point 19 °F    
Average Humidity 96    
Maximum Humidity 100    
Minimum Humidity 86    
Precipitation  
Precipitation 0.11 in - - ()
Sea Level Pressure  
Sea Level Pressure 29.99 in    
Wind  
Wind Speed 23 mph (NNW)    
Max Wind Speed 38 mph    
Max Gust Speed 51 mph    
Visibility 10 miles    
Events Snow    
Averages and records for this station are not official NWS values.
T = Trace of Precipitation, MM = Missing Value Source: NWS Daily Summary

Daily Weather History Graph

Daily Weather History Graph

Search for Another Location

Airport:

Trip Planner

Search our weather history database for the weather conditions in past years. The results will help you decide how hot, cold, wet, or windy it might be!

Date:

Astronomy

Apr. 01, 2014 Rise Set
Actual Time 7:09 AM CDT 7:55 PM CDT
Civil Twilight 6:40 AM CDT 8:24 PM CDT
Nautical Twilight 6:05 AM CDT 8:59 PM CDT
Astronomical Twilight 5:29 AM CDT 9:35 PM CDT
Moon 8:09 AM CDT (4/1) 10:24 PM CDT (4/1)
Length of Visible Light 13h 44m
Length of Day
12h 45m
Waxing Crescent, 5% of the Moon is Illuminated
Apr 1
Waxing Crescent
Apr 7
First Quarter
Apr 15
Full
Apr 22
Last Quarter
Apr 29
New

Hourly Weather History & Observations

Time (CDT) Temp. Windchill Dew Point Humidity Pressure Visibility Wind Dir Wind Speed Gust Speed Precip Events Conditions
12:05 AM 14.0 °F -8.3 °F 14.0 °F 100% 29.79 in - NW 35.7 mph 48.3 mph 0.01 in Snow Heavy Snow
12:25 AM 14.0 °F -8.5 °F 14.0 °F 100% 29.80 in - NW 36.8 mph 49.5 mph 0.09 in Snow Heavy Snow
12:45 AM 14.0 °F -8.3 °F 14.0 °F 100% 29.82 in - NW 35.7 mph 50.6 mph 0.12 in Snow Heavy Snow
1:05 AM 14.0 °F -8.8 °F 14.0 °F 100% 29.83 in - NW 38.0 mph 50.6 mph 0.01 in Snow Heavy Snow
1:25 AM 14.0 °F -7.4 °F 14.0 °F 100% 29.84 in - NW 32.2 mph 41.4 mph 0.06 in Snow Heavy Snow
1:45 AM 14.0 °F -6.8 °F 14.0 °F 100% 29.84 in - NW 29.9 mph 41.4 mph 0.07 in Snow Heavy Snow
2:05 AM 14.0 °F -6.8 °F 14.0 °F 100% 29.85 in - NW 29.9 mph 41.4 mph N/A Snow Heavy Snow
2:25 AM 14.0 °F -6.2 °F 14.0 °F 100% 29.85 in - NW 27.6 mph 41.4 mph 0.01 in Snow Heavy Snow
2:45 AM 14.0 °F -7.4 °F 14.0 °F 100% 29.85 in - NW 32.2 mph 42.6 mph 0.02 in Snow Heavy Snow
3:05 AM 14.0 °F -7.1 °F 14.0 °F 100% 29.86 in - NW 31.1 mph 38.0 mph N/A Snow Heavy Snow
3:25 AM 14.0 °F -6.5 °F 14.0 °F 100% 29.87 in - NW 28.8 mph 38.0 mph N/A Snow Heavy Snow
3:45 AM 14.0 °F -5.1 °F 14.0 °F 100% 29.89 in - NW 24.2 mph 36.8 mph 0.01 in Snow Heavy Snow
4:05 AM 14.0 °F -6.2 °F 14.0 °F 100% 29.89 in - NW 27.6 mph 36.8 mph N/A Snow Heavy Snow
4:25 AM 14.0 °F -5.5 °F 14.0 °F 100% 29.90 in - NW 25.3 mph 38.0 mph N/A Snow Heavy Snow
4:45 AM 14.0 °F -7.1 °F 14.0 °F 100% 29.90 in - NW 31.1 mph 39.1 mph 0.01 in Snow Heavy Snow
5:05 AM 14.0 °F -6.5 °F 14.0 °F 100% 29.91 in - NW 28.8 mph 34.5 mph N/A Snow Heavy Snow
5:25 AM 14.0 °F -3.9 °F 14.0 °F 100% 29.92 in - NW 20.7 mph 35.7 mph N/A Snow Heavy Snow
5:45 AM 14.0 °F -5.1 °F 14.0 °F 100% 29.92 in - NW 24.2 mph 31.1 mph N/A Snow Heavy Snow
6:05 AM 12.2 °F -5.3 °F 12.2 °F 100% 29.93 in - NW 18.4 mph 33.4 mph N/A Snow Heavy Snow
6:25 AM 12.2 °F -4.8 °F 12.2 °F 100% 29.94 in - NW 17.3 mph - N/A   Overcast
6:45 AM 10.4 °F -9.1 °F 10.4 °F 100% 29.94 in - NW 21.9 mph 27.6 mph N/A   Overcast
7:05 AM 10.4 °F -8.2 °F 10.4 °F 100% 29.96 in 10.0 mi NW 19.6 mph 24.2 mph N/A   Mostly Cloudy
7:25 AM 10.4 °F -7.2 °F 10.4 °F 100% 29.97 in 10.0 mi NW 17.3 mph 24.2 mph N/A   Partly Cloudy
7:45 AM 12.2 °F -5.8 °F 10.4 °F 92% 29.98 in 10.0 mi NW 19.6 mph 26.5 mph N/A   Clear
8:05 AM 12.2 °F -5.3 °F 10.4 °F 92% 29.99 in 10.0 mi NW 18.4 mph 24.2 mph N/A   Partly Cloudy
8:25 AM 14.0 °F -3.9 °F 10.4 °F 86% 30.01 in 10.0 mi NW 20.7 mph 26.5 mph N/A   Partly Cloudy
8:45 AM 14.0 °F -2.5 °F 10.4 °F 86% 30.01 in 10.0 mi NW 17.3 mph 29.9 mph N/A   Partly Cloudy
9:05 AM 14.0 °F -3.4 °F 12.2 °F 93% 30.01 in 10.0 mi NW 19.6 mph - N/A   Clear
9:25 AM 15.8 °F -1.1 °F 12.2 °F 86% 30.02 in 10.0 mi NW 19.6 mph 25.3 mph N/A   Clear
9:45 AM 15.8 °F 0.3 °F 14.0 °F 93% 30.03 in 10.0 mi NW 16.1 mph 25.3 mph N/A   Clear
10:05 AM 15.8 °F 0.3 °F 12.2 °F 86% 30.04 in 10.0 mi NW 16.1 mph 20.7 mph N/A   Clear
10:25 AM 17.6 °F 2.7 °F 14.0 °F 86% 30.03 in 10.0 mi NNW 16.1 mph - N/A   Clear
10:45 AM 17.6 °F 2.2 °F 14.0 °F 86% 30.04 in 10.0 mi NNW 17.3 mph - N/A   Clear
11:05 AM 17.6 °F 2.7 °F 15.8 °F 93% 30.05 in 10.0 mi WNW 16.1 mph - N/A   Clear
11:25 AM 17.6 °F 2.2 °F 15.8 °F 93% 30.05 in 10.0 mi WNW 17.3 mph - N/A   Partly Cloudy
11:45 AM 19.4 °F 5.0 °F 15.8 °F 86% 30.05 in 10.0 mi NW 16.1 mph - N/A   Clear
12:05 PM 19.4 °F 5.5 °F 17.6 °F 93% 30.05 in 10.0 mi NW 15.0 mph - N/A   Clear
12:25 PM 21.2 °F 7.8 °F 19.4 °F 93% 30.05 in 10.0 mi NW 15.0 mph - N/A   Clear
12:45 PM 23.0 °F 10.1 °F 19.4 °F 86% 30.05 in 10.0 mi NW 15.0 mph 19.6 mph N/A   Clear
1:05 PM 23.0 °F 10.1 °F 21.2 °F 93% 30.05 in 10.0 mi NW 15.0 mph - N/A   Clear
1:25 PM 23.0 °F 11.1 °F 23.0 °F 100% 30.05 in 10.0 mi NW 12.7 mph - N/A   Clear
1:45 PM 24.8 °F 12.9 °F 23.0 °F 93% 30.05 in 10.0 mi NW 13.8 mph 18.4 mph N/A   Clear
2:05 PM 24.8 °F 14.0 °F 23.0 °F 93% 30.05 in 10.0 mi WNW 11.5 mph - N/A   Clear
2:25 PM 24.8 °F 14.0 °F 24.8 °F 100% 30.04 in 10.0 mi NW 11.5 mph - N/A   Clear
2:45 PM 26.6 °F 15.7 °F 24.8 °F 93% 30.04 in 10.0 mi NW 12.7 mph 19.6 mph N/A   Clear
3:05 PM 26.6 °F 15.7 °F 26.6 °F 100% 30.04 in 10.0 mi NW 12.7 mph 18.4 mph N/A   Clear
3:25 PM 28.4 °F 18.5 °F 26.6 °F 93% 30.04 in 10.0 mi WNW 11.5 mph - N/A   Clear
3:45 PM 28.4 °F 17.5 °F 26.6 °F 93% 30.04 in 10.0 mi NW 13.8 mph - N/A   Clear
4:05 PM 28.4 °F 18.0 °F 26.6 °F 93% 30.04 in 10.0 mi NW 12.7 mph - N/A   Clear
4:25 PM 28.4 °F 18.0 °F 26.6 °F 93% 30.04 in 10.0 mi NW 12.7 mph - N/A   Clear
4:45 PM 28.4 °F 17.5 °F 26.6 °F 93% 30.04 in 10.0 mi NW 13.8 mph - N/A   Clear
5:05 PM 28.4 °F 18.5 °F 26.6 °F 93% 30.04 in 10.0 mi NW 11.5 mph - N/A   Clear
5:25 PM 28.4 °F 18.5 °F 26.6 °F 93% 30.04 in 10.0 mi NW 11.5 mph - N/A   Clear
5:45 PM 28.4 °F 18.5 °F 26.6 °F 93% 30.05 in 10.0 mi NW 11.5 mph - N/A   Clear
6:05 PM 28.4 °F 18.5 °F 26.6 °F 93% 30.05 in 10.0 mi NNW 11.5 mph - N/A   Clear
6:25 PM 28.4 °F 19.7 °F 26.6 °F 93% 30.05 in 10.0 mi NNW 9.2 mph - N/A   Clear
6:45 PM 28.4 °F 19.7 °F 26.6 °F 93% 30.05 in 10.0 mi North 9.2 mph - N/A   Mostly Cloudy
7:05 PM 28.4 °F 19.7 °F 26.6 °F 93% 30.05 in 10.0 mi North 9.2 mph - N/A   Mostly Cloudy
7:25 PM 28.4 °F 19.1 °F 28.4 °F 100% 30.05 in 10.0 mi NNE 10.4 mph - N/A   Mostly Cloudy
7:45 PM 28.4 °F 20.4 °F 28.4 °F 100% 30.05 in 10.0 mi NNE 8.1 mph - N/A   Mostly Cloudy
8:05 PM 28.4 °F 19.1 °F 28.4 °F 100% 30.05 in 10.0 mi NE 10.4 mph - N/A   Overcast
8:25 PM 28.4 °F 20.4 °F 28.4 °F 100% 30.06 in 10.0 mi NE 8.1 mph - N/A   Overcast
8:45 PM 28.4 °F 20.4 °F 28.4 °F 100% 30.06 in 10.0 mi NE 8.1 mph - N/A   Overcast
9:05 PM 28.4 °F 21.2 °F 26.6 °F 93% 30.07 in 10.0 mi NE 6.9 mph - N/A   Overcast
9:25 PM 28.4 °F 21.2 °F 28.4 °F 100% 30.07 in 10.0 mi NE 6.9 mph - N/A   Overcast
9:45 PM 28.4 °F 20.4 °F 28.4 °F 100% 30.07 in 10.0 mi NE 8.1 mph - N/A   Overcast
10:05 PM 28.4 °F 21.2 °F 28.4 °F 100% 30.08 in 10.0 mi NE 6.9 mph - N/A   Overcast
10:25 PM 26.6 °F 20.0 °F 26.6 °F 100% 30.09 in 10.0 mi NE 5.8 mph - N/A   Overcast
10:45 PM 26.6 °F 21.2 °F 26.6 °F 100% 30.10 in 10.0 mi NE 4.6 mph - N/A   Overcast
11:05 PM 26.6 °F 22.6 °F 26.6 °F 100% 30.11 in 10.0 mi NNE 3.5 mph - N/A   Overcast
11:25 PM 26.6 °F 21.2 °F 26.6 °F 100% 30.10 in 10.0 mi NE 4.6 mph - N/A   Overcast
11:45 PM 26.6 °F 18.2 °F 26.6 °F 100% 30.10 in 10.0 mi ENE 8.1 mph - N/A   Overcast